Year,Month,Day,Hour,Minute,Value (Times are PST for temperature in C)
2007,10,23,00,00,12.70
2007,10,23,00,01,12.70
2007,10,23,00,02,12.60
2007,10,23,00,03,12.60
2007,10,23,00,04,12.60
2007,10,23,00,05,12.50
2007,10,23,00,06,12.50
2007,10,23,00,07,12.50
2007,10,23,00,08,12.50
2007,10,23,00,09,12.50
2007,10,23,00,10,12.50
2007,10,23,00,11,12.40
2007,10,23,00,12,12.40
2007,10,23,00,13,12.40
2007,10,23,00,14,12.40
2007,10,23,00,15,12.40
2007,10,23,00,16,12.40
2007,10,23,00,17,12.40
2007,10,23,00,18,12.40
2007,10,23,00,19,12.40
2007,10,23,00,20,12.40
2007,10,23,00,21,12.40
2007,10,23,00,22,12.40
2007,10,23,00,23,12.40
2007,10,23,00,24,12.40
2007,10,23,00,25,12.40
2007,10,23,00,26,12.40
2007,10,23,00,27,12.40
2007,10,23,00,28,12.40
2007,10,23,00,29,12.40
2007,10,23,00,30,12.40
2007,10,23,00,31,12.40
2007,10,23,00,32,12.40
2007,10,23,00,33,12.40
2007,10,23,00,34,12.40
2007,10,23,00,35,12.40
2007,10,23,00,36,12.40
2007,10,23,00,37,12.40
2007,10,23,00,38,12.40
2007,10,23,00,39,12.40
2007,10,23,00,40,12.40
2007,10,23,00,41,12.40
2007,10,23,00,42,12.40
2007,10,23,00,43,12.40
2007,10,23,00,44,12.40
2007,10,23,00,45,12.40
2007,10,23,00,46,12.40
2007,10,23,00,47,12.40
2007,10,23,00,48,12.40
2007,10,23,00,49,12.40
2007,10,23,00,50,12.30
2007,10,23,00,51,12.30
2007,10,23,00,52,12.30
2007,10,23,00,53,12.30
2007,10,23,00,54,12.30
2007,10,23,00,55,12.30
2007,10,23,00,56,12.30
2007,10,23,00,57,12.30
2007,10,23,00,58,12.40
2007,10,23,00,59,12.40
2007,10,23,01,00,12.40
2007,10,23,01,01,12.40
2007,10,23,01,02,12.40
2007,10,23,01,03,12.40
2007,10,23,01,04,12.40
2007,10,23,01,05,12.40
2007,10,23,01,06,12.40
2007,10,23,01,07,12.40
2007,10,23,01,08,12.40
2007,10,23,01,09,12.40
2007,10,23,01,10,12.40
2007,10,23,01,11,12.40
2007,10,23,01,12,12.40
2007,10,23,01,13,12.40
2007,10,23,01,14,12.40
2007,10,23,01,15,12.40
2007,10,23,01,16,12.50
2007,10,23,01,17,12.50
2007,10,23,01,18,12.50
2007,10,23,01,19,12.50
2007,10,23,01,20,12.50
2007,10,23,01,21,12.50
2007,10,23,01,22,12.50
2007,10,23,01,23,12.50
2007,10,23,01,24,12.50
2007,10,23,01,25,12.50
2007,10,23,01,26,12.60
2007,10,23,01,27,12.60
2007,10,23,01,28,12.60
2007,10,23,01,29,12.60
2007,10,23,01,30,12.60
2007,10,23,01,31,12.60
2007,10,23,01,32,12.60
2007,10,23,01,33,12.60
2007,10,23,01,34,12.60
2007,10,23,01,35,12.50
2007,10,23,01,36,12.50
2007,10,23,01,37,12.50
2007,10,23,01,38,12.60
2007,10,23,01,39,12.60
2007,10,23,01,40,12.60
2007,10,23,01,41,12.60
2007,10,23,01,42,12.60
2007,10,23,01,43,12.60
2007,10,23,01,44,12.60
2007,10,23,01,45,12.60
2007,10,23,01,46,12.50
2007,10,23,01,47,12.50
2007,10,23,01,48,12.50
2007,10,23,01,49,12.50
2007,10,23,01,50,12.50
2007,10,23,01,51,12.50
2007,10,23,01,52,12.50
2007,10,23,01,53,12.50
2007,10,23,01,54,12.50
2007,10,23,01,55,12.50
2007,10,23,01,56,12.50
2007,10,23,01,57,12.60
2007,10,23,01,58,12.60
2007,10,23,01,59,12.60
2007,10,23,02,00,12.60
2007,10,23,02,01,12.60
2007,10,23,02,02,12.60
2007,10,23,02,03,12.60
2007,10,23,02,04,12.60
2007,10,23,02,05,12.60
2007,10,23,02,06,12.60
2007,10,23,02,07,12.60
2007,10,23,02,08,12.60
2007,10,23,02,09,12.60
2007,10,23,02,10,12.60
2007,10,23,02,11,12.60
2007,10,23,02,12,12.60
2007,10,23,02,13,12.60
2007,10,23,02,14,12.60
2007,10,23,02,15,12.60
2007,10,23,02,16,12.60
2007,10,23,02,17,12.60
2007,10,23,02,18,12.60
2007,10,23,02,19,12.50
2007,10,23,02,20,12.50
2007,10,23,02,21,12.40
2007,10,23,02,22,12.40
2007,10,23,02,23,12.40
2007,10,23,02,24,12.40
2007,10,23,02,25,12.40
2007,10,23,02,26,12.40
2007,10,23,02,27,12.40
2007,10,23,02,28,12.40
2007,10,23,02,29,12.40
2007,10,23,02,30,12.30
2007,10,23,02,31,12.30
2007,10,23,02,32,12.30
2007,10,23,02,33,12.30
2007,10,23,02,34,12.30
2007,10,23,02,35,12.30
2007,10,23,02,36,12.30
2007,10,23,02,37,12.30
2007,10,23,02,38,12.30
2007,10,23,02,39,12.30
2007,10,23,02,40,12.30
2007,10,23,02,41,12.30
2007,10,23,02,42,12.30
2007,10,23,02,43,12.30
2007,10,23,02,44,12.30
2007,10,23,02,45,12.30
2007,10,23,02,46,12.30
2007,10,23,02,47,12.30
2007,10,23,02,48,12.30
2007,10,23,02,49,12.20
2007,10,23,02,50,12.20
2007,10,23,02,51,12.20
2007,10,23,02,52,12.20
2007,10,23,02,53,12.20
2007,10,23,02,54,12.20
2007,10,23,02,55,12.20
2007,10,23,02,56,12.20
2007,10,23,02,57,12.20
2007,10,23,02,58,12.20
2007,10,23,02,59,12.20
2007,10,23,03,00,12.20
2007,10,23,03,01,12.20
2007,10,23,03,02,12.20
2007,10,23,03,03,12.20
2007,10,23,03,04,12.20
2007,10,23,03,05,12.20
2007,10,23,03,06,12.10
2007,10,23,03,07,12.10
2007,10,23,03,08,12.10
2007,10,23,03,09,12.10
2007,10,23,03,10,12.10
2007,10,23,03,11,12.10
2007,10,23,03,12,12.10
2007,10,23,03,13,12.10
2007,10,23,03,14,12.10
2007,10,23,03,15,12.10
2007,10,23,03,16,12.10
2007,10,23,03,17,12.10
2007,10,23,03,18,12.10
2007,10,23,03,19,12.00
2007,10,23,03,20,12.00
2007,10,23,03,21,12.00
2007,10,23,03,22,12.00
2007,10,23,03,23,11.90
2007,10,23,03,24,11.90
2007,10,23,03,25,11.90
2007,10,23,03,26,11.90
2007,10,23,03,27,11.90
2007,10,23,03,28,11.90
2007,10,23,03,29,11.90
2007,10,23,03,30,11.90
2007,10,23,03,31,11.90
2007,10,23,03,32,11.90
2007,10,23,03,33,11.90
2007,10,23,03,34,11.90
2007,10,23,03,35,11.90
2007,10,23,03,36,11.90
2007,10,23,03,37,11.90
2007,10,23,03,38,11.90
2007,10,23,03,39,11.90
2007,10,23,03,40,11.90
2007,10,23,03,41,11.90
2007,10,23,03,42,11.90
2007,10,23,03,43,11.90
2007,10,23,03,44,11.90
2007,10,23,03,45,11.90
2007,10,23,03,46,11.90
2007,10,23,03,47,11.90
2007,10,23,03,48,11.90
2007,10,23,03,49,11.90
2007,10,23,03,50,11.90
2007,10,23,03,51,11.90
2007,10,23,03,52,11.90
2007,10,23,03,53,11.90
2007,10,23,03,54,11.90
2007,10,23,03,55,11.80
2007,10,23,03,56,11.80
2007,10,23,03,57,11.80
2007,10,23,03,58,11.80
2007,10,23,03,59,11.80
2007,10,23,04,00,11.80
2007,10,23,04,01,11.80
2007,10,23,04,02,11.80
2007,10,23,04,03,11.80
2007,10,23,04,04,11.80
2007,10,23,04,05,11.70
2007,10,23,04,06,11.70
2007,10,23,04,07,11.70
2007,10,23,04,08,11.70
2007,10,23,04,09,11.60
2007,10,23,04,10,11.60
2007,10,23,04,11,11.60
2007,10,23,04,12,11.60
2007,10,23,04,13,11.50
2007,10,23,04,14,11.50
2007,10,23,04,15,11.40
2007,10,23,04,16,11.40
2007,10,23,04,17,11.40
2007,10,23,04,18,11.40
2007,10,23,04,19,11.40
2007,10,23,04,20,11.40
2007,10,23,04,21,11.30
2007,10,23,04,22,11.30
2007,10,23,04,23,11.30
2007,10,23,04,24,11.30
2007,10,23,04,25,11.30
2007,10,23,04,26,11.30
2007,10,23,04,27,11.20
2007,10,23,04,28,11.20
2007,10,23,04,29,11.20
2007,10,23,04,30,11.20
2007,10,23,04,31,11.20
2007,10,23,04,32,11.20
2007,10,23,04,33,11.20
2007,10,23,04,34,11.10
2007,10,23,04,35,11.10
2007,10,23,04,36,11.10
2007,10,23,04,37,11.10
2007,10,23,04,38,11.00
2007,10,23,04,39,11.00
2007,10,23,04,40,11.00
2007,10,23,04,41,10.90
2007,10,23,04,42,10.90
2007,10,23,04,43,10.90
2007,10,23,04,44,10.90
2007,10,23,04,45,10.90
2007,10,23,04,46,10.80
2007,10,23,04,47,10.80
2007,10,23,04,48,10.80
2007,10,23,04,49,10.80
2007,10,23,04,50,10.80
2007,10,23,04,51,10.80
2007,10,23,04,52,10.70
2007,10,23,04,53,10.70
2007,10,23,04,54,10.70
2007,10,23,04,55,10.70
2007,10,23,04,56,10.70
2007,10,23,04,57,10.70
2007,10,23,04,58,10.60
2007,10,23,04,59,10.60
2007,10,23,05,00,10.60
2007,10,23,05,01,10.60
2007,10,23,05,02,10.60
2007,10,23,05,03,10.50
2007,10,23,05,04,10.50
2007,10,23,05,05,10.50
2007,10,23,05,06,10.40
2007,10,23,05,07,10.40
2007,10,23,05,08,10.40
2007,10,23,05,09,10.40
2007,10,23,05,10,10.40
2007,10,23,05,11,10.40
2007,10,23,05,12,10.40
2007,10,23,05,13,10.40
2007,10,23,05,14,10.40
2007,10,23,05,15,10.40
2007,10,23,05,16,10.40
2007,10,23,05,17,10.40
2007,10,23,05,18,10.30
2007,10,23,05,19,10.30
2007,10,23,05,20,10.30
2007,10,23,05,21,10.30
2007,10,23,05,22,10.30
2007,10,23,05,23,10.30
2007,10,23,05,24,10.30
2007,10,23,05,25,10.30
2007,10,23,05,26,10.30
2007,10,23,05,27,10.30
2007,10,23,05,28,10.30
2007,10,23,05,29,10.30
2007,10,23,05,30,10.30
2007,10,23,05,31,10.30
2007,10,23,05,32,10.20
2007,10,23,05,33,10.20
2007,10,23,05,34,10.20
2007,10,23,05,35,10.20
2007,10,23,05,36,10.20
2007,10,23,05,37,10.20
2007,10,23,05,38,10.20
2007,10,23,05,39,10.20
2007,10,23,05,40,10.20
2007,10,23,05,41,10.20
2007,10,23,05,42,10.20
2007,10,23,05,43,10.20
2007,10,23,05,44,10.20
2007,10,23,05,45,10.20
2007,10,23,05,46,10.20
2007,10,23,05,47,10.20
2007,10,23,05,48,10.20
2007,10,23,05,49,10.20
2007,10,23,05,50,10.20
2007,10,23,05,51,10.10
2007,10,23,05,52,10.10
2007,10,23,05,53,10.10
2007,10,23,05,54,10.10
2007,10,23,05,55,10.10
2007,10,23,05,56,10.10
2007,10,23,05,57,10.10
2007,10,23,05,58,10.10
2007,10,23,05,59,10.10
2007,10,23,06,00,10.00
2007,10,23,06,01,10.00
2007,10,23,06,02,10.00
2007,10,23,06,03,10.00
2007,10,23,06,04,10.00
2007,10,23,06,05,10.00
2007,10,23,06,06,9.90
2007,10,23,06,07,9.90
2007,10,23,06,08,9.90
2007,10,23,06,09,10.00
2007,10,23,06,10,9.90
2007,10,23,06,11,9.90
2007,10,23,06,12,9.90
2007,10,23,06,13,9.90
2007,10,23,06,14,9.90
2007,10,23,06,15,9.80
2007,10,23,06,16,9.80
2007,10,23,06,17,9.80
2007,10,23,06,18,9.80
2007,10,23,06,19,9.80
2007,10,23,06,20,9.80
2007,10,23,06,21,9.80
2007,10,23,06,22,9.70
2007,10,23,06,23,9.70
2007,10,23,06,24,9.70
2007,10,23,06,25,9.80
2007,10,23,06,26,9.80
2007,10,23,06,27,9.80
2007,10,23,06,28,9.80
2007,10,23,06,29,9.80
2007,10,23,06,30,9.80
2007,10,23,06,31,9.80
2007,10,23,06,32,9.90
2007,10,23,06,33,9.90
2007,10,23,06,34,9.90
2007,10,23,06,35,9.90
2007,10,23,06,36,9.90
2007,10,23,06,37,10.00
2007,10,23,06,38,10.00
2007,10,23,06,39,10.00
2007,10,23,06,40,10.00
2007,10,23,06,41,9.90
2007,10,23,06,42,9.90
2007,10,23,06,43,9.90
2007,10,23,06,44,9.90
2007,10,23,06,45,9.90
2007,10,23,06,46,9.90
2007,10,23,06,47,9.90
2007,10,23,06,48,9.90
2007,10,23,06,49,9.90
2007,10,23,06,50,10.00
2007,10,23,06,51,10.00
2007,10,23,06,52,10.00
2007,10,23,06,53,10.00
2007,10,23,06,54,10.00
2007,10,23,06,55,10.10
2007,10,23,06,56,10.10
2007,10,23,06,57,10.10
2007,10,23,06,58,10.10
2007,10,23,06,59,10.00
2007,10,23,07,00,10.00
2007,10,23,07,01,9.90
2007,10,23,07,02,9.90
2007,10,23,07,03,10.00
2007,10,23,07,04,10.00
2007,10,23,07,05,10.00
2007,10,23,07,06,10.00
2007,10,23,07,07,10.00
2007,10,23,07,08,9.90
2007,10,23,07,09,9.90
2007,10,23,07,10,9.90
2007,10,23,07,11,9.90
2007,10,23,07,12,9.90
2007,10,23,07,13,9.90
2007,10,23,07,14,9.80
2007,10,23,07,15,9.80
2007,10,23,07,16,9.70
2007,10,23,07,17,9.70
2007,10,23,07,18,9.70
2007,10,23,07,19,9.70
2007,10,23,07,20,9.70
2007,10,23,07,21,9.80
2007,10,23,07,22,9.80
2007,10,23,07,23,9.90
2007,10,23,07,24,10.00
2007,10,23,07,25,10.00
2007,10,23,07,26,10.00
2007,10,23,07,27,10.00
2007,10,23,07,28,10.10
2007,10,23,07,29,10.10
2007,10,23,07,30,10.10
2007,10,23,07,31,10.10
2007,10,23,07,32,10.10
2007,10,23,07,33,10.20
2007,10,23,07,34,10.20
2007,10,23,07,35,10.20
2007,10,23,07,36,10.20
2007,10,23,07,37,10.10
2007,10,23,07,38,10.10
2007,10,23,07,39,10.20
2007,10,23,07,40,10.10
2007,10,23,07,41,10.10
2007,10,23,07,42,10.10
2007,10,23,07,43,10.10
2007,10,23,07,44,10.10
2007,10,23,07,45,10.10
2007,10,23,07,46,10.10
2007,10,23,07,47,10.10
2007,10,23,07,48,10.10
2007,10,23,07,49,10.10
2007,10,23,07,50,10.10
2007,10,23,07,51,10.00
2007,10,23,07,52,10.00
2007,10,23,07,53,10.00
2007,10,23,07,54,9.90
2007,10,23,07,55,9.90
2007,10,23,07,56,9.80
2007,10,23,07,57,9.80
2007,10,23,07,58,9.80
2007,10,23,07,59,9.80
2007,10,23,08,00,9.80
2007,10,23,08,01,9.80
2007,10,23,08,02,9.80
2007,10,23,08,03,9.80
2007,10,23,08,04,9.80
2007,10,23,08,05,9.80
2007,10,23,08,06,9.80
2007,10,23,08,07,9.80
2007,10,23,08,08,9.80
2007,10,23,08,09,9.80
2007,10,23,08,10,9.80
2007,10,23,08,11,9.80
2007,10,23,08,12,9.80
2007,10,23,08,13,9.80
2007,10,23,08,14,9.70
2007,10,23,08,15,9.70
2007,10,23,08,16,9.70
2007,10,23,08,17,9.70
2007,10,23,08,18,9.70
2007,10,23,08,19,9.70
2007,10,23,08,20,9.70
2007,10,23,08,21,9.70
2007,10,23,08,22,9.70
2007,10,23,08,23,9.70
2007,10,23,08,24,9.70
2007,10,23,08,25,9.70
2007,10,23,08,26,9.70
2007,10,23,08,27,9.70
2007,10,23,08,28,9.70
2007,10,23,08,29,9.70
2007,10,23,08,30,9.70
2007,10,23,08,31,9.70
2007,10,23,08,32,9.80
2007,10,23,08,33,9.80
2007,10,23,08,34,9.80
2007,10,23,08,35,9.80
2007,10,23,08,36,9.80
2007,10,23,08,37,9.80
2007,10,23,08,38,9.80
2007,10,23,08,39,9.80
2007,10,23,08,40,9.90
2007,10,23,08,41,9.90
2007,10,23,08,42,9.90
2007,10,23,08,43,10.00
2007,10,23,08,44,10.00
2007,10,23,08,45,10.00
2007,10,23,08,46,10.10
2007,10,23,08,47,10.10
2007,10,23,08,48,10.10
2007,10,23,08,49,10.10
2007,10,23,08,50,10.20
2007,10,23,08,51,10.20
2007,10,23,08,52,10.20
2007,10,23,08,53,10.30
2007,10,23,08,54,10.30
2007,10,23,08,55,10.30
2007,10,23,08,56,10.40
2007,10,23,08,57,10.40
2007,10,23,08,58,10.50
2007,10,23,08,59,10.50
2007,10,23,09,00,10.60
2007,10,23,09,01,10.60
2007,10,23,09,02,10.60
2007,10,23,09,03,10.70
2007,10,23,09,04,10.70
2007,10,23,09,05,10.70
2007,10,23,09,06,10.80
2007,10,23,09,07,10.80
2007,10,23,09,08,10.80
2007,10,23,09,09,10.80
2007,10,23,09,10,10.90
2007,10,23,09,11,10.90
2007,10,23,09,12,10.90
2007,10,23,09,13,10.90
2007,10,23,09,14,11.00
2007,10,23,09,15,11.00
2007,10,23,09,16,11.10
2007,10,23,09,17,11.10
2007,10,23,09,18,11.10
2007,10,23,09,19,11.20
2007,10,23,09,20,11.20
2007,10,23,09,21,11.20
2007,10,23,09,22,11.30
2007,10,23,09,23,11.30
2007,10,23,09,24,11.30
2007,10,23,09,25,11.40
2007,10,23,09,26,11.40
2007,10,23,09,27,11.40
2007,10,23,09,28,11.50
2007,10,23,09,29,11.50
2007,10,23,09,30,11.60
2007,10,23,09,31,11.60
2007,10,23,09,32,11.60
2007,10,23,09,33,11.70
2007,10,23,09,34,11.70
2007,10,23,09,35,11.70
2007,10,23,09,36,11.70
2007,10,23,09,37,11.70
2007,10,23,09,38,11.80
2007,10,23,09,39,11.80
2007,10,23,09,40,11.80
2007,10,23,09,41,11.80
2007,10,23,09,42,11.90
2007,10,23,09,43,12.00
2007,10,23,09,44,12.00
2007,10,23,09,45,12.10
2007,10,23,09,46,12.10
2007,10,23,09,47,12.20
2007,10,23,09,48,12.20
2007,10,23,09,49,12.30
2007,10,23,09,50,12.30
2007,10,23,09,51,12.40
2007,10,23,09,52,12.50
2007,10,23,09,53,12.50
2007,10,23,09,54,12.60
2007,10,23,09,55,12.70
2007,10,23,09,56,12.80
2007,10,23,09,57,12.80
2007,10,23,09,58,12.90
2007,10,23,09,59,12.90
2007,10,23,10,00,13.00
2007,10,23,10,01,13.10
2007,10,23,10,02,13.10
2007,10,23,10,03,13.20
2007,10,23,10,04,13.30
2007,10,23,10,05,13.30
2007,10,23,10,06,13.40
2007,10,23,10,07,13.40
2007,10,23,10,08,13.50
2007,10,23,10,09,13.50
2007,10,23,10,10,13.60
2007,10,23,10,11,13.60
2007,10,23,10,12,13.70
2007,10,23,10,13,13.70
2007,10,23,10,14,13.80
2007,10,23,10,15,13.80
2007,10,23,10,16,13.80
2007,10,23,10,17,13.90
2007,10,23,10,18,14.00
2007,10,23,10,19,14.00
2007,10,23,10,20,14.10
2007,10,23,10,21,14.10
2007,10,23,10,22,14.20
2007,10,23,10,23,14.20
2007,10,23,10,24,14.30
2007,10,23,10,25,14.30
2007,10,23,10,26,14.40
2007,10,23,10,27,14.40
2007,10,23,10,28,14.50
2007,10,23,10,29,14.60
2007,10,23,10,30,14.70
2007,10,23,10,31,14.70
2007,10,23,10,32,14.80
2007,10,23,10,33,14.80
2007,10,23,10,34,14.90
2007,10,23,10,35,14.90
2007,10,23,10,36,15.00
2007,10,23,10,37,15.00
2007,10,23,10,38,15.00
2007,10,23,10,39,15.00
2007,10,23,10,40,15.20
2007,10,23,10,41,15.30
2007,10,23,10,42,15.30
2007,10,23,10,43,15.40
2007,10,23,10,44,15.40
2007,10,23,10,45,15.40
2007,10,23,10,46,15.40
2007,10,23,10,47,15.40
2007,10,23,10,48,15.40
2007,10,23,10,49,15.40
2007,10,23,10,50,15.40
2007,10,23,10,51,15.30
2007,10,23,10,52,15.30
2007,10,23,10,53,15.30
2007,10,23,10,54,15.20
2007,10,23,10,55,15.20
2007,10,23,10,56,15.20
2007,10,23,10,57,15.10
2007,10,23,10,58,15.10
2007,10,23,10,59,15.00
2007,10,23,11,00,15.00
2007,10,23,11,01,15.00
2007,10,23,11,02,15.00
2007,10,23,11,03,15.00
2007,10,23,11,04,15.00
2007,10,23,11,05,15.00
2007,10,23,11,06,15.00
2007,10,23,11,07,15.00
2007,10,23,11,08,15.00
2007,10,23,11,09,15.00
2007,10,23,11,10,15.00
2007,10,23,11,11,15.00
2007,10,23,11,12,15.10
2007,10,23,11,13,15.10
2007,10,23,11,14,15.10
2007,10,23,11,15,15.10
2007,10,23,11,16,15.10
2007,10,23,11,17,15.10
2007,10,23,11,18,15.20
2007,10,23,11,19,15.10
2007,10,23,11,20,15.10
2007,10,23,11,21,15.10
2007,10,23,11,22,15.20
2007,10,23,11,23,15.20
2007,10,23,11,24,15.20
2007,10,23,11,25,15.20
2007,10,23,11,26,15.20
2007,10,23,11,27,15.20
2007,10,23,11,28,15.20
2007,10,23,11,29,15.20
2007,10,23,11,30,15.20
2007,10,23,11,31,15.20
2007,10,23,11,32,15.30
2007,10,23,11,33,15.30
2007,10,23,11,34,15.30
2007,10,23,11,35,15.30
2007,10,23,11,36,15.30
2007,10,23,11,37,15.30
2007,10,23,11,38,15.20
2007,10,23,11,39,15.20
2007,10,23,11,40,15.20
2007,10,23,11,41,15.20
2007,10,23,11,42,15.30
2007,10,23,11,43,15.30
2007,10,23,11,44,15.30
2007,10,23,11,45,15.30
2007,10,23,11,46,15.30
2007,10,23,11,47,15.30
2007,10,23,11,48,15.30
2007,10,23,11,49,15.30
2007,10,23,11,50,15.30
2007,10,23,11,51,15.30
2007,10,23,11,52,15.30
2007,10,23,11,53,15.30
2007,10,23,11,54,15.40
2007,10,23,11,55,15.50
2007,10,23,11,56,15.50
2007,10,23,11,57,15.60
2007,10,23,11,58,15.60
2007,10,23,11,59,15.70
2007,10,23,12,00,15.70
2007,10,23,12,01,15.80
2007,10,23,12,02,15.80
2007,10,23,12,03,15.80
2007,10,23,12,04,15.90
2007,10,23,12,05,15.90
2007,10,23,12,06,15.90
2007,10,23,12,07,15.90
2007,10,23,12,08,15.90
2007,10,23,12,09,16.00
2007,10,23,12,10,16.00
2007,10,23,12,11,16.10
2007,10,23,12,12,16.10
2007,10,23,12,13,16.10
2007,10,23,12,14,16.10
2007,10,23,12,15,16.10
2007,10,23,12,16,16.10
2007,10,23,12,17,16.10
2007,10,23,12,18,16.10
2007,10,23,12,19,16.00
2007,10,23,12,20,16.10
2007,10,23,12,21,16.10
2007,10,23,12,22,16.10
2007,10,23,12,23,16.20
2007,10,23,12,24,16.20
2007,10,23,12,25,16.20
2007,10,23,12,26,16.30
2007,10,23,12,27,16.30
2007,10,23,12,28,16.30
2007,10,23,12,29,16.30
2007,10,23,12,30,16.40
2007,10,23,12,31,16.40
2007,10,23,12,32,16.40
2007,10,23,12,33,16.40
2007,10,23,12,34,16.40
2007,10,23,12,35,16.40
2007,10,23,12,36,16.40
2007,10,23,12,37,16.40
2007,10,23,12,38,16.40
2007,10,23,12,39,16.50
2007,10,23,12,40,16.50
2007,10,23,12,41,16.50
2007,10,23,12,42,16.50
2007,10,23,12,43,16.50
2007,10,23,12,44,16.50
2007,10,23,12,45,16.40
2007,10,23,12,46,16.50
2007,10,23,12,47,16.50
2007,10,23,12,48,16.40
2007,10,23,12,49,16.50
2007,10,23,12,50,16.50
2007,10,23,12,51,16.50
2007,10,23,12,52,16.50
2007,10,23,12,53,16.50
2007,10,23,12,54,16.50
2007,10,23,12,55,16.60
2007,10,23,12,56,16.60
2007,10,23,12,57,16.60
2007,10,23,12,58,16.60
2007,10,23,12,59,16.60
2007,10,23,13,00,16.50
2007,10,23,13,01,16.40
2007,10,23,13,02,16.40
2007,10,23,13,03,16.40
2007,10,23,13,04,16.40
2007,10,23,13,05,16.40
2007,10,23,13,06,16.40
2007,10,23,13,07,16.50
2007,10,23,13,08,16.50
2007,10,23,13,09,16.60
2007,10,23,13,10,16.60
2007,10,23,13,11,16.60
2007,10,23,13,12,16.60
2007,10,23,13,13,16.70
2007,10,23,13,14,16.70
2007,10,23,13,15,16.70
2007,10,23,13,16,16.70
2007,10,23,13,17,16.70
2007,10,23,13,18,16.70
2007,10,23,13,19,16.70
2007,10,23,13,20,16.80
2007,10,23,13,21,16.80
2007,10,23,13,22,16.80
2007,10,23,13,23,16.80
2007,10,23,13,24,16.90
2007,10,23,13,25,16.90
2007,10,23,13,26,16.80
2007,10,23,13,27,16.90
2007,10,23,13,28,16.90
2007,10,23,13,29,16.90
2007,10,23,13,30,16.90
2007,10,23,13,31,16.90
2007,10,23,13,32,16.90
2007,10,23,13,33,16.90
2007,10,23,13,34,16.90
2007,10,23,13,35,17.00
2007,10,23,13,36,17.00
2007,10,23,13,37,17.00
2007,10,23,13,38,17.00
2007,10,23,13,39,17.10
2007,10,23,13,40,17.10
2007,10,23,13,41,17.10
2007,10,23,13,42,17.00
2007,10,23,13,43,17.00
2007,10,23,13,44,17.00
2007,10,23,13,45,17.10
2007,10,23,13,46,17.10
2007,10,23,13,47,17.20
2007,10,23,13,48,17.30
2007,10,23,13,49,17.30
2007,10,23,13,50,17.40
2007,10,23,13,51,17.50
2007,10,23,13,52,17.50
2007,10,23,13,53,17.50
2007,10,23,13,54,17.50
2007,10,23,13,55,17.50
2007,10,23,13,56,17.50
2007,10,23,13,57,17.60
2007,10,23,13,58,17.60
2007,10,23,13,59,17.60
2007,10,23,14,00,17.70
2007,10,23,14,01,17.70
2007,10,23,14,02,17.70
2007,10,23,14,03,17.80
2007,10,23,14,04,17.80
2007,10,23,14,05,17.80
2007,10,23,14,06,17.90
2007,10,23,14,07,17.90
2007,10,23,14,08,18.00
2007,10,23,14,09,18.00
2007,10,23,14,10,18.10
2007,10,23,14,11,18.10
2007,10,23,14,12,18.10
2007,10,23,14,13,18.10
2007,10,23,14,14,18.00
2007,10,23,14,15,18.00
2007,10,23,14,16,17.90
2007,10,23,14,17,17.90
2007,10,23,14,18,17.90
2007,10,23,14,19,17.90
2007,10,23,14,20,18.00
2007,10,23,14,21,18.00
2007,10,23,14,22,18.10
2007,10,23,14,23,18.10
2007,10,23,14,24,18.10
2007,10,23,14,25,18.10
2007,10,23,14,26,18.10
2007,10,23,14,27,18.20
2007,10,23,14,28,18.20
2007,10,23,14,29,18.20
2007,10,23,14,30,18.20
2007,10,23,14,31,18.20
2007,10,23,14,32,18.20
2007,10,23,14,33,18.20
2007,10,23,14,34,18.20
2007,10,23,14,35,18.20
2007,10,23,14,36,18.20
2007,10,23,14,37,18.20
2007,10,23,14,38,18.20
2007,10,23,14,39,18.20
2007,10,23,14,40,18.30
2007,10,23,14,41,18.30
2007,10,23,14,42,18.30
2007,10,23,14,43,18.20
2007,10,23,14,44,18.20
2007,10,23,14,45,18.20
2007,10,23,14,46,18.20
2007,10,23,14,47,18.20
2007,10,23,14,48,18.20
2007,10,23,14,49,18.10
2007,10,23,14,50,18.10
2007,10,23,14,51,18.10
2007,10,23,14,52,18.10
2007,10,23,14,53,18.10
2007,10,23,14,54,18.20
2007,10,23,14,55,18.20
2007,10,23,14,56,18.20
2007,10,23,14,57,18.20
2007,10,23,14,58,18.20
2007,10,23,14,59,18.20
2007,10,23,15,00,18.20
2007,10,23,15,01,18.10
2007,10,23,15,02,18.10
2007,10,23,15,03,18.10
2007,10,23,15,04,18.10
2007,10,23,15,05,18.10
2007,10,23,15,06,18.10
2007,10,23,15,07,18.10
2007,10,23,15,08,18.10
2007,10,23,15,09,18.10
2007,10,23,15,10,18.10
2007,10,23,15,11,18.20
2007,10,23,15,12,18.20
2007,10,23,15,13,18.20
2007,10,23,15,14,18.30
2007,10,23,15,15,18.20
2007,10,23,15,16,18.10
2007,10,23,15,17,18.10
2007,10,23,15,18,18.10
2007,10,23,15,19,18.00
2007,10,23,15,20,18.00
2007,10,23,15,21,17.90
2007,10,23,15,22,17.80
2007,10,23,15,23,17.90
2007,10,23,15,24,17.80
2007,10,23,15,25,17.80
2007,10,23,15,26,17.80
2007,10,23,15,27,17.80
2007,10,23,15,28,17.80
2007,10,23,15,29,17.80
2007,10,23,15,30,17.80
2007,10,23,15,31,17.80
2007,10,23,15,32,17.80
2007,10,23,15,33,17.80
2007,10,23,15,34,17.90
2007,10,23,15,35,17.90
2007,10,23,15,36,17.80
2007,10,23,15,37,17.80
2007,10,23,15,38,17.80
2007,10,23,15,39,17.90
2007,10,23,15,40,17.90
2007,10,23,15,41,17.80
2007,10,23,15,42,17.80
2007,10,23,15,43,17.80
2007,10,23,15,44,17.80
2007,10,23,15,45,17.80
2007,10,23,15,46,17.90
2007,10,23,15,47,17.90
2007,10,23,15,48,17.90
2007,10,23,15,49,18.00
2007,10,23,15,50,18.00
2007,10,23,15,51,18.00
2007,10,23,15,52,17.90
2007,10,23,15,53,17.90
2007,10,23,15,54,17.90
2007,10,23,15,55,17.90
2007,10,23,15,56,17.90
2007,10,23,15,57,17.90
2007,10,23,15,58,17.90
2007,10,23,15,59,18.00
2007,10,23,16,00,18.00
2007,10,23,16,01,18.00
2007,10,23,16,02,18.10
2007,10,23,16,03,18.10
2007,10,23,16,04,18.10
2007,10,23,16,05,18.10
2007,10,23,16,06,18.20
2007,10,23,16,07,18.20
2007,10,23,16,08,18.20
2007,10,23,16,09,18.30
2007,10,23,16,10,18.30
2007,10,23,16,11,18.40
2007,10,23,16,12,18.40
2007,10,23,16,13,18.40
2007,10,23,16,14,18.40
2007,10,23,16,15,18.50
2007,10,23,16,16,18.60
2007,10,23,16,17,18.60
2007,10,23,16,18,18.60
2007,10,23,16,19,18.60
2007,10,23,16,20,18.60
2007,10,23,16,21,18.60
2007,10,23,16,22,18.60
2007,10,23,16,23,18.60
2007,10,23,16,24,18.60
2007,10,23,16,25,18.50
2007,10,23,16,26,18.50
2007,10,23,16,27,18.50
2007,10,23,16,28,18.50
2007,10,23,16,29,18.50
2007,10,23,16,30,18.60
2007,10,23,16,31,18.60
2007,10,23,16,32,18.60
2007,10,23,16,33,18.50
2007,10,23,16,34,18.50
2007,10,23,16,35,18.40
2007,10,23,16,36,18.40
2007,10,23,16,37,18.40
2007,10,23,16,38,18.40
2007,10,23,16,39,18.40
2007,10,23,16,40,18.40
2007,10,23,16,41,18.40
2007,10,23,16,42,18.40
2007,10,23,16,43,18.30
2007,10,23,16,44,18.40
2007,10,23,16,45,18.40
2007,10,23,16,46,18.40
2007,10,23,16,47,18.40
2007,10,23,16,48,18.40
2007,10,23,16,49,18.40
2007,10,23,16,50,18.40
2007,10,23,16,51,18.40
2007,10,23,16,52,18.40
2007,10,23,16,53,18.40
2007,10,23,16,54,18.40
2007,10,23,16,55,18.40
2007,10,23,16,56,18.40
2007,10,23,16,57,18.40
2007,10,23,16,58,18.40
2007,10,23,16,59,18.30
2007,10,23,17,00,18.30
2007,10,23,17,01,18.30
2007,10,23,17,02,18.30
2007,10,23,17,03,18.30
2007,10,23,17,04,18.30
2007,10,23,17,05,18.30
2007,10,23,17,06,18.30
2007,10,23,17,07,18.20
2007,10,23,17,08,18.20
2007,10,23,17,09,18.20
2007,10,23,17,10,18.20
2007,10,23,17,11,18.20
2007,10,23,17,12,18.20
2007,10,23,17,13,18.20
2007,10,23,17,14,18.10
2007,10,23,17,15,18.10
2007,10,23,17,16,18.10
2007,10,23,17,17,18.00
2007,10,23,17,18,18.00
2007,10,23,17,19,17.90
2007,10,23,17,20,17.90
2007,10,23,17,21,17.80
2007,10,23,17,22,17.80
2007,10,23,17,23,17.80
2007,10,23,17,24,17.80